KB2UZY Weather Reports


time (UTC)temp
F
wind
direction
speed
knots
gust
knots
rain 1hr
in
rain 24hr
in
rain mn
in
humidity
%
barometer
mb
20260510213103 69 232 2.6 9.6 0.00 0.14 0.05 63 1010.6
20260510211550 69 269 4.3 12.2 0.00 0.14 0.05 64 1010.4
20260510210049 69 232 2.6 10.4 0.00 0.14 0.05 64 1010.3
20260510204546 69 252 3.5 7.0 0.00 0.16 0.05 70 1010.1
20260510203045 69 220 0.0 6.1 0.00 0.16 0.05 71 1010.0
20260510201553 70 174 3.5 10.4 0.00 0.16 0.05 69 1009.8
20260510200045 70 172 2.6 13.0 0.00 0.16 0.05 69 1009.6
20260510194549 70 200 6.1 14.8 0.00 0.17 0.05 68 1009.8
20260510193050 69 195 3.5 12.2 0.00 0.17 0.05 69 1009.9
20260510191551 69 157 6.1 11.3 0.00 0.17 0.05 71 1010.0
20260510190057 70 183 5.2 13.9 0.00 0.17 0.05 69 1010.0
20260510184541 72 184 4.3 10.4 0.00 0.17 0.05 64 1010.0
20260510183041 73 193 4.3 9.6 0.00 0.17 0.05 67 1010.0
20260510181539 72 165 1.7 9.6 0.00 0.17 0.05 67 1010.1
20260510180038 71 170 3.5 14.8 0.01 0.17 0.05 67 1010.2
20260510174534 71 180 5.2 14.8 0.01 0.19 0.05 67 1010.3
20260510173033 71 196 3.5 8.7 0.01 0.19 0.05 67 1010.5
20260510171531 70 167 6.1 13.0 0.01 0.19 0.05 68 1010.6
20260510170031 70 165 3.5 11.3 0.00 0.18 0.04 69 1010.7
20260510164526 70 127 5.2 11.3 0.00 0.19 0.04 70 1011.0
20260510163036 69 160 5.2 13.0 0.00 0.19 0.04 69 1011.0
20260510161522 68 178 6.1 10.4 0.00 0.19 0.04 70 1011.0
20260510160020 67 163 2.6 10.4 0.00 0.19 0.04 72 1011.1
20260510154516 66 163 3.5 13.0 0.00 0.20 0.04 75 1011.5
20260510153013 65 161 2.6 7.0 0.00 0.20 0.04 76 1011.5
20260510151511 65 169 2.6 11.3 0.00 0.20 0.04 76 1011.6
20260510150008 64 159 3.5 8.7 0.00 0.21 0.04 78 1011.5
20260510144504 63 163 1.7 7.8 0.00 0.21 0.04 81 1011.5
20260510143109 61 213 1.7 7.8 0.00 0.21 0.04 85 1011.6
20260510141559 59 155 1.7 7.8 0.01 0.21 0.04 88 1011.6
20260510140052 58 186 3.5 8.7 0.01 0.21 0.04 92 1011.5
20260510134552 56 94 2.6 7.0 0.01 0.21 0.04 94 1011.6
20260510133044 54 194 2.6 5.2 0.01 0.21 0.04 95 1011.5
20260510131541 54 186 0.9 5.2 0.00 0.20 0.03 95 1011.6
20260510130041 54 215 0.9 4.3 0.00 0.20 0.03 95 1011.6
20260510124543 54 172 0.9 6.1 0.00 0.21 0.03 96 1011.3
20260510123038 53 169 0.9 5.2 0.00 0.21 0.03 96 1011.1
20260510121538 53 200 0.9 6.1 0.00 0.21 0.03 96 1011.3
20260510120037 53 212 2.6 5.2 0.00 0.21 0.03 96 1011.3
20260510114543 53 215 1.7 4.3 0.00 0.24 0.03 96 1011.1
20260510113034 53 186 0.9 3.5 0.00 0.24 0.03 96 1011.1
20260510111535 52 171 1.7 3.5 0.00 0.24 0.03 96 1011.1
20260510110032 52 171 0.9 7.8 0.00 0.24 0.03 96 1011.1
20260510104531 52 122 2.6 5.2 0.00 0.28 0.03 96 1010.7
20260510103030 52 180 0.9 5.2 0.00 0.28 0.03 96 1010.6
20260510101528 52 184 2.6 9.6 0.00 0.28 0.03 96 1010.5
20260510100041 52 155 0.9 7.8 0.01 0.28 0.03 96 1009.9
20260510094535 52 162 2.6 7.0 0.01 0.31 0.03 96 1010.0
20260510093024 52 205 2.6 8.7 0.01 0.31 0.03 96 1010.1
20260510091525 52 166 4.3 10.4 0.01 0.31 0.03 96 1010.1
20260510090025 52 192 3.5 7.0 0.00 0.30 0.02 96 1010.2
20260510084523 52 186 2.6 6.1 0.00 0.30 0.02 96 1010.6
20260510083023 52 197 0.9 5.2 0.00 0.30 0.02 96 1010.5
20260510081517 52 178 2.6 5.2 0.00 0.30 0.02 96 1010.6
20260510080025 52 219 0.0 5.2 0.00 0.30 0.02 96 1010.6
20260510074514 52 216 1.7 6.1 0.00 0.30 0.02 96 1010.3
20260510073012 52 217 2.6 5.2 0.00 0.30 0.02 96 1010.1
20260510071512 52 173 1.7 4.3 0.01 0.30 0.02 96 1010.1
20260510070014 52 158 0.9 4.3 0.01 0.30 0.02 96 1010.0
20260510064511 52 173 2.6 5.2 0.01 0.30 0.02 96 1010.1
20260510063009 52 165 1.7 7.0 0.01 0.30 0.02 95 1010.1
20260510061508 51 172 1.7 6.1 0.00 0.28 0.01 95 1010.0
20260510060008 52 144 0.9 2.6 0.00 0.28 0.01 95 1009.7
20260510054506 52 144 0.9 5.2 0.00 0.28 0.01 95 1009.8
20260510053006 52 137 0.0 6.1 0.00 0.28 0.01 95 1010.1
20260510051503 53 176 3.5 6.1 0.01 0.28 0.01 95 1010.2
20260510050001 53 138 0.9 4.3 0.01 0.28 0.01 95 1010.3
20260510044601 53 155 0.0 2.6 0.01 0.28 0.01 96 1010.1
20260510043111 53 212 0.9 7.0 0.01 0.28 0.01 96 1010.1
20260510041556 53 164 0.9 1.7 0.00 0.28 0.00 96 1010.5
20260510034558 53 124 0.0 2.6 0.01 0.28 0.28 95 1010.2
20260510033130 53 102 0.0 0.0 0.01 0.28 0.28 95 1010.2
20260510031610 53 102 0.0 0.0 0.01 0.28 0.28 95 1010.1
20260510030059 53 102 0.0 0.0 0.01 0.28 0.28 95 1010.0
20260510024553 53 102 0.0 0.0 0.00 0.27 0.27 95 1010.1
20260510023052 53 102 0.0 2.6 0.00 0.27 0.27 95 1010.0
20260510021552 53 238 0.0 0.0 0.01 0.27 0.27 95 1010.2
20260510020052 53 238 0.0 0.0 0.01 0.27 0.27 95 1010.5
20260510014551 53 238 0.0 1.7 0.01 0.27 0.27 95 1010.5
20260510013050 53 235 0.0 3.5 0.01 0.27 0.27 95 1010.5
20260510011550 53 183 0.0 0.0 0.01 0.26 0.26 95 1010.1
20260510010050 53 182 0.0 1.7 0.01 0.26 0.26 95 1010.0
20260510004551 53 182 0.0 5.2 0.01 0.26 0.26 95 1010.0
20260510003048 53 169 1.7 4.3 0.02 0.26 0.26 95 1009.7
20260510001549 53 148 0.9 4.3 0.01 0.25 0.25 95 1009.6
20260509234556 53 186 3.5 7.8 0.02 0.25 0.25 95 1009.6
20260509233049 53 175 2.6 6.1 0.01 0.24 0.24 95 1009.6
20260509231548 52 200 4.3 8.7 0.02 0.24 0.24 95 1009.6
20260509230045 52 170 1.7 8.7 0.01 0.23 0.23 95 1009.6
20260509224545 52 173 2.6 7.0 0.02 0.23 0.23 95 1009.6
20260509223044 52 149 1.7 7.0 0.03 0.23 0.23 95 1009.7
20260509221546 52 172 0.9 6.1 0.02 0.22 0.22 95 1009.6
20260509220041 52 136 1.7 3.5 0.03 0.22 0.22 94 1009.6
20260509214540 52 139 1.7 3.5 0.02 0.21 0.21 94 1009.8